This is the latest recevied weather packets stored in our database for station/object W0AKO. If no packets are shown the sender has not sent any weather packets the latest 10 day(s).
| Time | Temp. | Humidity | Pressure | Rain* | Wind** | Luminosity | Snow |
|---|---|---|---|---|---|---|---|
| 1777442945 | 15.56° C | 10% | 1018.2 hPa | 0 mm | - | 0 W/m² | - |
| 1777442642 | 15.56° C | 10% | 1018.1 hPa | 0 mm | - | 0 W/m² | - |
| 1777442337 | 15.56° C | 10% | 1018 hPa | 0 mm | - | 0 W/m² | - |
| 1777442034 | 15° C | 10% | 1018.1 hPa | 0 mm | - | 0 W/m² | - |
| 1777441729 | 15.56° C | 10% | 1018 hPa | 0 mm | - | 0 W/m² | - |
| 1777441424 | 15.56° C | 10% | 1017.9 hPa | 0 mm | - | 0 W/m² | - |
| 1777441119 | 16.11° C | 10% | 1017.8 hPa | 0 mm | - | 0 W/m² | - |
| 1777440816 | 16.11° C | 10% | 1018 hPa | 0 mm | - | 0 W/m² | - |
| 1777440512 | 16.67° C | 10% | 1017.8 hPa | 0 mm | - | 0 W/m² | - |
| 1777440207 | 16.67° C | 10% | 1017.9 hPa | 0 mm | - | 0 W/m² | - |
| 1777439904 | 16.67° C | 10% | 1017.8 hPa | 0 mm | - | 0 W/m² | - |
| 1777439601 | 16.67° C | 10% | 1017.8 hPa | 0 mm | - | 0 W/m² | - |
| 1777439296 | 16.67° C | 10% | 1017.9 hPa | 0 mm | - | 0 W/m² | - |
| 1777438991 | 16.67° C | 10% | 1017.8 hPa | 0 mm | - | 0 W/m² | - |
| 1777438690 | 16.67° C | 10% | 1017.7 hPa | 0 mm | - | 0 W/m² | - |
| 1777438385 | 16.67° C | 10% | 1018.1 hPa | 0 mm | - | 0 W/m² | - |
| 1777438081 | 16.67° C | 10% | 1018 hPa | 0 mm | - | 0 W/m² | - |
| 1777437777 | 16.67° C | 10% | 1017.9 hPa | 0 mm | - | 0 W/m² | - |
| 1777437474 | 17.22° C | 10% | 1018 hPa | 0 mm | - | 0 W/m² | - |
| 1777437171 | 17.22° C | 10% | 1017.9 hPa | 0 mm | - | 0 W/m² | - |
| 1777436867 | 17.78° C | 10% | 1017.7 hPa | 0 mm | - | 0 W/m² | - |
| 1777436564 | 17.78° C | 10% | 1017.9 hPa | 0 mm | - | 0 W/m² | - |
| 1777436260 | 17.78° C | 10% | 1017.7 hPa | 0 mm | - | 0 W/m² | - |
| 1777435957 | 17.78° C | 10% | 1017.6 hPa | 0 mm | - | 0 W/m² | - |
| 1777435653 | 17.78° C | 10% | 1017.8 hPa | 0 mm | - | 0 W/m² | - |
* Rain latest hour (hover to see other rain measurements)
** Current wind speed in m/s (hover to see current wind gust speed)